�N����,����,�~����,�C��,���x,�C��,����,���ϕ���,�ő�u�ԕ���,�ő厞����,���˗�,�I�_���x,�n�����x,�ő啗���N��,DTYPE
"21/09/10","00:10",0.0,19.2,91.1,1009.3,299.4,0.3,0.8,283.3,0.00,17.8,24.1,"00:00:02",1
"21/09/10","00:20",0.0,19.0,91.3,1009.5,305.0,1.0,1.3,317.7,0.00,17.6,24.2,"00:16:48",1
"21/09/10","00:30",0.0,19.1,91.8,1009.5,316.8,1.2,1.6,320.8,0.00,17.8,24.2,"00:27:20",1
"21/09/10","00:40",0.0,19.5,91.9,1009.5,320.1,1.5,2.0,322.1,0.00,18.2,23.9,"00:35:44",1
"21/09/10","00:50",0.0,19.8,92.1,1009.5,322.2,1.8,3.7,348.9,0.00,18.5,24.1,"00:46:32",1
"21/09/10","01:00",0.0,19.9,92.1,1009.5,315.0,1.1,2.6,325.6,0.00,18.6,23.9,"00:53:52",1
"21/09/10","01:10",0.0,19.9,92.3,1009.5,327.3,1.1,3.4,333.6,0.00,18.7,24.0,"01:08:56",1
"21/09/10","01:20",0.0,19.9,92.3,1009.5,326.4,1.1,2.8,301.2,0.00,18.7,23.9,"01:12:48",1
"21/09/10","01:30",0.0,19.9,92.5,1009.5,328.5,1.5,3.4,329.3,0.00,18.7,23.8,"01:24:24",1
"21/09/10","01:40",0.0,19.9,92.5,1009.7,332.2,1.3,3.2,341.7,0.00,18.7,23.9,"01:39:52",1
"21/09/10","01:50",0.0,19.9,92.5,1009.7,337.4,1.3,2.8,324.3,0.00,18.7,23.8,"01:40:56",1
"21/09/10","02:00",0.0,19.7,92.5,1010.0,324.2,1.2,1.9,318.8,0.00,18.5,23.9,"01:58:08",1
"21/09/10","02:10",0.0,19.7,92.6,1010.0,323.5,1.5,2.1,331.8,0.00,18.5,23.9,"02:02:16",1
"21/09/10","02:20",0.0,19.7,92.6,1009.7,334.5,1.6,2.7,340.0,0.00,18.5,23.8,"02:18:40",1
"21/09/10","02:30",0.0,19.6,92.6,1010.0,338.6,1.3,2.4,338.9,0.00,18.4,23.8,"02:23:52",1
"21/09/10","02:40",0.0,19.5,92.7,1010.0,324.7,1.1,2.0,336.5,0.00,18.3,23.7,"02:38:08",1
"21/09/10","02:50",0.0,19.6,92.7,1010.0,329.3,1.6,3.4,338.7,0.00,18.4,23.8,"02:47:44",1
"21/09/10","03:00",0.0,19.5,92.7,1009.7,331.0,1.3,3.4,334.9,0.00,18.3,23.6,"02:56:00",1
"21/09/10","03:10",0.0,19.3,92.7,1010.0,331.3,1.1,2.1,335.6,0.00,18.1,23.4,"03:04:40",1
"21/09/10","03:20",0.0,19.1,92.8,1010.0,324.5,1.3,2.5,333.4,0.00,17.9,23.7,"03:15:44",1
"21/09/10","03:30",0.0,19.0,92.9,1009.7,330.5,1.7,3.3,332.5,0.00,17.9,23.7,"03:20:48",1
"21/09/10","03:40",0.0,19.0,93.0,1010.0,323.4,1.3,2.2,331.3,0.00,17.9,23.7,"03:30:02",1
"21/09/10","03:50",0.0,19.0,93.1,1010.0,327.3,2.0,3.2,340.4,0.00,17.9,23.7,"03:42:24",1
"21/09/10","04:00",0.0,18.9,93.1,1009.7,329.7,1.7,2.4,318.9,0.00,17.8,23.4,"03:52:48",1
"21/09/10","04:10",0.0,19.0,93.1,1009.5,313.9,1.7,3.2,302.9,0.00,17.9,23.6,"04:09:40",1
"21/09/10","04:20",0.0,19.1,92.9,1010.0,320.7,2.5,4.1,328.7,0.00,18.0,23.6,"04:15:44",1
"21/09/10","04:30",0.0,19.0,92.8,1010.0,319.7,2.1,4.2,335.6,0.00,17.8,23.6,"04:21:52",1
"21/09/10","04:40",0.0,19.0,92.6,1009.7,320.1,2.3,4.0,316.0,0.00,17.8,23.5,"04:36:56",1
"21/09/10","04:50",0.0,19.1,92.4,1009.7,325.9,2.0,4.8,337.8,0.00,17.9,23.5,"04:41:04",1
"21/09/10","05:00",0.0,19.0,92.4,1010.2,336.1,1.6,2.5,349.2,0.00,17.8,23.4,"04:50:48",1
"21/09/10","05:10",0.0,19.1,92.4,1010.2,334.3,2.0,3.2,344.3,0.00,17.9,23.5,"05:02:08",1
"21/09/10","05:20",0.0,19.2,92.4,1010.0,331.0,2.3,3.3,343.6,0.00,18.0,23.4,"05:18:08",1
"21/09/10","05:30",0.0,19.2,92.4,1010.2,331.2,2.3,3.6,338.7,0.00,18.0,23.3,"05:20:02",1
"21/09/10","05:40",0.0,19.0,92.5,1010.0,329.9,2.1,3.6,333.3,0.00,17.8,23.2,"05:32:24",1
"21/09/10","05:50",0.0,19.0,92.6,1009.7,320.2,2.0,3.7,335.8,0.00,17.8,23.4,"05:45:36",1
"21/09/10","06:00",0.0,18.9,92.8,1010.2,323.9,2.1,4.2,348.3,0.00,17.7,23.3,"05:58:32",1
"21/09/10","06:10",0.0,18.9,92.9,1010.0,329.3,2.3,4.1,345.4,0.00,17.8,23.3,"06:09:36",1
"21/09/10","06:20",0.0,18.9,93.1,1010.2,328.1,2.8,5.0,343.4,0.00,17.8,23.5,"06:13:36",1
"21/09/10","06:30",0.0,18.9,93.2,1010.2,330.2,3.0,5.0,328.8,0.00,17.8,23.3,"06:20:56",1
"21/09/10","06:40",0.0,19.0,93.2,1010.2,327.2,3.2,4.7,338.1,0.00,17.9,23.1,"06:38:24",1
"21/09/10","06:50",0.0,19.2,93.1,1010.4,335.2,2.7,4.7,333.1,0.01,18.1,23.3,"06:42:40",1
"21/09/10","07:00",0.0,19.6,93.0,1010.4,338.6,2.3,4.4,341.3,0.03,18.5,23.0,"06:59:12",1
"21/09/10","07:10",0.0,19.9,92.9,1010.7,337.1,2.6,4.9,322.8,0.05,18.8,23.3,"07:00:56",1
"21/09/10","07:20",0.0,20.3,92.7,1010.4,339.6,2.0,3.9,335.6,0.07,19.1,23.1,"07:11:44",1
"21/09/10","07:30",0.0,20.6,92.0,1010.4,345.7,2.0,3.7,341.4,0.09,19.3,23.2,"07:22:00",1
"21/09/10","07:40",0.0,21.3,91.4,1010.2,355.9,1.5,4.0,339.0,0.11,19.9,23.1,"07:30:32",1
"21/09/10","07:50",0.0,21.5,90.4,1010.0,341.6,1.8,3.4,326.5,0.14,19.9,23.1,"07:44:32",1
"21/09/10","08:00",0.0,22.0,88.8,1010.2,342.1,1.8,3.4,349.1,0.17,20.1,23.2,"07:50:56",1
"21/09/10","08:10",0.0,22.5,87.0,1009.7,338.8,1.6,2.8,346.3,0.19,20.3,23.1,"08:03:28",1
"21/09/10","08:20",0.0,23.1,85.0,1010.0,320.6,1.3,4.2,339.2,0.22,20.5,23.0,"08:15:12",1
"21/09/10","08:30",0.0,23.1,82.3,1009.5,337.0,2.1,4.0,333.5,0.24,20.0,23.0,"08:25:36",1
"21/09/10","08:40",0.0,23.5,81.1,1009.5,338.3,2.0,3.6,352.3,0.27,20.1,23.3,"08:32:16",1
"21/09/10","08:50",0.0,24.3,79.5,1009.7,315.9,1.2,2.8,338.7,0.29,20.6,23.3,"08:42:24",1
"21/09/10","09:00",0.0,24.7,77.0,1008.8,311.7,1.0,2.1,233.9,0.32,20.4,23.3,"08:51:28",1
"21/09/10","09:10",0.0,25.3,75.4,1009.0,270.8,0.6,1.8,251.1,0.34,20.7,23.3,"09:06:16",1
"21/09/10","09:20",0.0,25.9,73.4,1008.6,257.3,0.7,1.7,347.0,0.36,20.8,23.1,"09:12:32",1
"21/09/10","09:30",0.0,26.6,72.1,1008.3,198.9,0.5,2.0,341.4,0.39,21.2,23.2,"09:20:02",1
"21/09/10","09:40",0.0,27.2,69.6,1009.0,345.8,0.6,1.8,334.5,0.40,21.2,23.3,"09:30:16",1
"21/09/10","09:50",0.0,27.3,66.6,1009.0,115.1,1.0,2.1,29.5,0.42,20.6,23.3,"09:41:12",1
"21/09/10","10:00",0.0,27.3,64.4,1008.8,130.8,0.8,1.9,128.5,0.44,20.0,23.4,"09:55:36",1
"21/09/10","10:10",0.0,27.9,62.5,1009.3,172.7,0.8,2.4,178.3,0.46,20.1,23.6,"10:09:28",1
"21/09/10","10:20",0.0,27.7,62.7,1009.3,170.9,1.2,3.5,203.8,0.47,20.0,23.5,"10:13:36",1
"21/09/10","10:30",0.0,28.5,61.1,1009.3,77.3,0.6,1.7,25.4,0.49,20.3,23.7,"10:22:16",1
"21/09/10","10:40",0.0,29.3,59.8,1009.3,121.5,0.6,1.3,183.9,0.50,20.7,23.7,"10:36:56",1
"21/09/10","10:50",0.0,29.6,56.5,1009.5,62.3,0.7,1.7,340.4,0.51,20.1,23.8,"10:42:48",1
"21/09/10","11:00",0.0,29.6,57.0,1009.3,114.7,1.0,2.2,130.4,0.52,20.2,23.8,"10:56:00",1
"21/09/10","11:10",0.0,29.5,57.7,1009.3,175.2,1.0,2.5,197.3,0.53,20.3,23.7,"11:07:12",1
"21/09/10","11:20",0.0,30.0,54.7,1009.3,139.1,0.6,1.6,158.6,0.54,19.9,24.1,"11:17:52",1
"21/09/10","11:30",0.0,29.8,56.9,1008.8,162.7,1.5,3.1,213.5,0.55,20.4,24.1,"11:25:04",1
"21/09/10","11:40",0.0,29.5,54.7,1008.8,183.7,1.6,4.4,224.3,0.55,19.5,23.9,"11:37:04",1
"21/09/10","11:50",0.0,29.8,52.6,1008.6,185.2,1.5,3.3,229.2,0.55,19.1,24.2,"11:41:36",1
"21/09/10","12:00",0.0,29.8,48.7,1008.6,217.1,1.6,3.9,237.1,0.55,17.9,24.0,"11:51:28",1
"21/09/10","12:10",0.0,30.6,49.9,1008.1,208.0,1.5,3.4,193.7,0.56,19.0,24.3,"12:00:40",1
"21/09/10","12:20",0.0,30.9,48.3,1008.6,229.9,1.2,4.0,234.0,0.56,18.8,24.5,"12:13:28",1
"21/09/10","12:30",0.0,31.1,45.3,1008.1,261.6,0.8,2.1,249.2,0.56,17.9,24.3,"12:25:44",1
"21/09/10","12:40",0.0,31.2,45.4,1008.6,304.9,1.0,2.9,233.9,0.56,18.0,24.6,"12:32:32",1
"21/09/10","12:50",0.0,31.0,44.2,1008.3,267.8,1.5,3.3,206.6,0.52,17.4,24.7,"12:40:32",1
"21/09/10","13:00",0.0,30.6,45.3,1008.1,272.1,1.3,2.6,254.1,0.49,17.5,24.6,"12:57:20",1
"21/09/10","13:10",0.0,30.9,48.3,1007.8,335.4,1.6,3.7,349.1,0.53,18.8,24.8,"13:09:44",1
"21/09/10","13:20",0.0,31.1,48.1,1007.8,327.9,1.0,2.7,349.3,0.52,18.9,24.9,"13:17:52",1
"21/09/10","13:30",0.0,31.2,49.7,1007.6,242.2,1.1,2.6,334.8,0.53,19.5,24.8,"13:24:24",1
"21/09/10","13:40",0.0,31.5,51.7,1007.8,287.6,1.5,4.5,236.4,0.52,20.4,25.1,"13:31:04",1
"21/09/10","13:50",0.0,32.0,49.1,1007.6,4.7,0.7,2.2,353.8,0.49,20.0,24.9,"13:49:36",1
"21/09/10","14:00",0.0,32.0,49.7,1008.1,301.1,1.0,2.5,340.7,0.50,20.2,25.2,"13:58:16",1
"21/09/10","14:10",0.0,31.5,50.5,1007.6,335.1,1.0,3.6,206.9,0.27,20.0,25.2,"14:08:08",1
"21/09/10","14:20",0.0,31.4,50.2,1007.6,254.8,1.1,2.6,214.1,0.44,19.8,25.4,"14:14:08",1
"21/09/10","14:30",0.0,32.3,49.3,1007.8,181.6,0.8,1.9,202.1,0.45,20.4,25.3,"14:27:44",1
"21/09/10","14:40",0.0,31.9,49.7,1007.6,342.9,1.2,2.7,328.4,0.38,20.1,25.5,"14:33:28",1
"21/09/10","14:50",0.0,32.0,51.1,1007.4,330.0,1.5,3.3,332.5,0.38,20.7,25.2,"14:44:40",1
"21/09/10","15:00",0.0,32.2,51.4,1007.4,241.0,0.7,2.5,354.6,0.37,20.9,25.3,"14:52:24",1
"21/09/10","15:10",0.0,32.7,49.0,1007.8,288.7,0.6,1.9,341.3,0.34,20.6,25.7,"15:04:48",1
"21/09/10","15:20",0.0,32.1,49.1,1007.8,215.0,0.6,1.9,232.4,0.17,20.1,25.7,"15:11:04",1
"21/09/10","15:30",0.0,32.1,50.7,1007.8,317.0,0.8,1.9,233.2,0.30,20.6,25.7,"15:27:04",1
"21/09/10","15:40",0.0,32.4,50.7,1007.6,274.6,1.2,2.8,233.9,0.35,20.9,25.6,"15:37:04",1
"21/09/10","15:50",0.0,32.7,49.3,1007.6,321.9,0.8,2.6,350.9,0.32,20.7,25.8,"15:43:44",1
"21/09/10","16:00",0.0,32.8,49.5,1007.8,247.8,0.8,2.6,10.5,0.30,20.9,25.9,"15:58:56",1
"21/09/10","16:10",0.0,32.3,47.8,1007.6,320.2,1.1,3.4,356.1,0.20,19.9,25.7,"16:09:12",1
"21/09/10","16:20",0.0,30.9,50.6,1007.6,281.9,0.8,2.0,309.5,0.06,19.5,25.9,"16:12:08",1
"21/09/10","16:30",0.0,30.6,51.6,1007.1,324.0,0.8,1.7,317.4,0.12,19.5,25.8,"16:27:36",1
"21/09/10","16:40",0.0,31.6,49.4,1006.9,308.3,0.8,2.4,350.9,0.19,19.8,25.8,"16:32:24",1
"21/09/10","16:50",0.0,31.7,50.7,1006.9,278.1,0.7,1.8,6.1,0.11,20.3,26.0,"16:44:24",1
"21/09/10","17:00",0.0,31.1,50.9,1006.7,306.5,1.3,3.1,344.0,0.06,19.8,25.9,"16:58:08",1
"21/09/10","17:10",0.0,30.2,52.9,1006.4,303.4,0.7,2.4,343.1,0.04,19.6,26.0,"17:05:28",1
"21/09/10","17:20",0.0,29.6,58.9,1006.2,333.9,1.2,2.2,337.8,0.04,20.8,25.9,"17:14:16",1
"21/09/10","17:30",0.0,28.9,61.4,1006.0,340.2,1.5,2.8,336.4,0.03,20.8,25.9,"17:28:32",1
"21/09/10","17:40",0.0,28.4,63.1,1006.2,336.2,1.8,3.6,335.8,0.02,20.7,25.9,"17:32:40",1
"21/09/10","17:50",0.0,28.0,64.8,1005.7,338.1,1.8,3.7,343.4,0.01,20.8,26.2,"17:44:00",1
"21/09/10","18:00",0.0,27.8,65.7,1006.2,335.9,2.0,2.9,319.7,0.00,20.8,26.0,"17:58:24",1
"21/09/10","18:10",0.0,27.3,66.6,1006.4,328.0,1.5,3.4,342.6,0.00,20.6,25.9,"18:04:32",1
"21/09/10","18:20",0.0,27.1,67.8,1006.4,327.4,1.5,2.6,338.9,0.00,20.7,26.1,"18:11:04",1
"21/09/10","18:30",0.0,26.6,69.2,1006.7,330.5,1.5,2.5,351.0,0.00,20.5,25.9,"18:21:44",1
"21/09/10","18:40",0.0,26.1,70.9,1006.7,302.3,0.6,1.8,340.2,0.00,20.4,25.9,"18:33:04",1
"21/09/10","18:50",0.0,25.6,73.0,1007.4,296.8,0.5,0.9,283.7,0.00,20.4,25.9,"18:42:00",1
"21/09/10","19:00",0.0,25.5,75.0,1007.1,335.1,1.0,2.6,342.9,0.00,20.8,26.0,"18:59:12",1
"21/09/10","19:10",0.0,25.3,76.4,1007.1,341.8,1.0,1.7,346.3,0.00,20.9,26.0,"19:01:20",1
"21/09/10","19:20",0.0,25.1,77.2,1007.1,326.0,0.8,1.4,338.9,0.00,20.9,25.8,"19:16:48",1
"21/09/10","19:30",0.0,25.0,77.7,1007.6,341.1,1.2,2.1,340.4,0.00,20.9,25.7,"19:25:28",1
"21/09/10","19:40",0.0,25.0,77.7,1007.4,316.8,0.8,1.7,323.0,0.00,20.9,25.8,"19:30:08",1
"21/09/10","19:50",0.0,24.9,77.9,1008.3,309.8,0.7,1.3,333.9,0.00,20.8,25.9,"19:40:32",1
"21/09/10","20:00",0.0,24.8,78.4,1007.6,323.7,0.3,1.2,316.1,0.00,20.8,25.6,"19:57:28",1
"21/09/10","20:10",0.0,24.5,79.2,1007.6,294.7,0.7,1.1,263.6,0.00,20.7,25.6,"20:04:08",1
"21/09/10","20:20",0.0,24.3,79.8,1008.6,310.3,0.8,1.6,340.5,0.00,20.6,25.7,"20:11:44",1
"21/09/10","20:30",0.0,24.2,80.1,1008.3,324.6,1.1,2.1,339.8,0.00,20.6,25.9,"20:25:12",1
"21/09/10","20:40",0.0,24.1,80.5,1008.3,311.9,0.6,1.0,298.0,0.00,20.6,25.6,"20:31:12",1
"21/09/10","20:50",0.0,23.8,81.3,1008.3,320.8,1.1,2.0,339.4,0.00,20.4,25.7,"20:45:52",1
"21/09/10","21:00",0.0,23.5,81.8,1008.3,280.4,0.2,1.2,331.6,0.00,20.3,25.9,"20:50:08",1
"21/09/10","21:10",0.0,23.4,82.5,1008.3,291.4,1.0,1.8,255.8,0.00,20.3,25.7,"21:02:08",1
"21/09/10","21:20",0.0,23.3,83.0,1008.3,323.4,1.2,2.2,319.9,0.00,20.3,25.6,"21:18:08",1
"21/09/10","21:30",0.0,23.3,83.4,1007.8,325.6,1.0,1.3,336.4,0.00,20.4,25.4,"21:22:08",1
"21/09/10","21:40",0.0,23.2,83.9,1007.8,303.4,1.0,1.6,315.7,0.00,20.4,25.5,"21:38:16",1
"21/09/10","21:50",0.0,23.1,84.5,1008.3,292.8,1.0,2.2,333.8,0.00,20.4,25.4,"21:40:40",1
"21/09/10","22:00",0.0,23.1,84.7,1007.8,285.4,1.0,1.4,308.5,0.00,20.4,25.6,"21:50:08",1
"21/09/10","22:10",0.0,23.1,84.8,1007.8,303.0,1.0,1.3,299.6,0.00,20.4,25.3,"22:09:44",1
"21/09/10","22:20",0.0,23.1,85.0,1007.8,315.8,1.2,1.6,313.2,0.00,20.5,25.5,"22:14:16",1
"21/09/10","22:30",0.0,22.9,85.4,1007.8,289.6,0.8,1.6,342.3,0.00,20.4,25.4,"22:20:56",1
"21/09/10","22:40",0.0,22.9,85.6,1007.6,288.8,1.0,1.2,287.5,0.00,20.4,25.4,"22:30:02",1
"21/09/10","22:50",0.0,23.0,85.7,1007.6,297.2,1.0,1.8,290.6,0.00,20.5,25.2,"22:49:52",1
"21/09/10","23:00",0.0,23.0,85.7,1007.4,296.5,1.2,1.8,324.8,0.00,20.5,25.3,"22:57:36",1
"21/09/10","23:10",0.0,23.1,85.5,1007.4,314.9,1.1,1.8,335.2,0.00,20.6,25.3,"23:06:16",1
"21/09/10","23:20",0.0,23.0,85.6,1007.6,312.8,1.2,1.6,336.9,0.00,20.5,25.3,"23:16:08",1
"21/09/10","23:30",0.0,23.0,85.7,1007.8,296.8,0.8,1.4,322.9,0.00,20.5,24.9,"23:22:56",1
"21/09/10","23:40",0.0,22.9,85.7,1008.1,319.8,1.1,1.6,309.4,0.00,20.4,25.2,"23:33:36",1
"21/09/10","23:50",0.0,22.9,85.9,1008.1,316.8,1.2,1.9,332.6,0.00,20.5,25.2,"23:47:52",1
"21/09/10","24:00",0.0,22.9,86.0,1008.3,300.9,1.1,1.6,313.8,0.00,20.5,25.1,"23:50:40",1
